This is the latest recevied weather packets stored in our database for station/object vk4zu-13. If no packets are shown the sender has not sent any weather packets the latest 10 day(s).
| Time | Temp. | Humidity | Pressure | Rain* | Wind** | Luminosity | Snow |
|---|---|---|---|---|---|---|---|
| 1777591687 | 21.67° C | 82% | 1025.5 hPa | 0 mm | - | 178 W/m² | - |
| 1777591625 | 21.67° C | 80% | 1025.5 hPa | 0 mm | - | 178 W/m² | - |
| 1777591562 | 21.67° C | 81% | 1025.5 hPa | 0 mm | - | 162 W/m² | - |
| 1777591503 | 21.67° C | 81% | 1025.4 hPa | 0 mm | - | 176 W/m² | - |
| 1777591432 | 21.67° C | 81% | 1025.4 hPa | 0 mm | - | 214 W/m² | - |
| 1777591367 | 21.67° C | 81% | 1025.4 hPa | 0 mm | - | 214 W/m² | - |
| 1777591336 | 21.67° C | 81% | 1025.5 hPa | 0 mm | - | 218 W/m² | - |
| 1777591310 | 21.67° C | 82% | 1025.6 hPa | 0 mm | - | 148 W/m² | - |
| 1777591177 | 21.67° C | 81% | 1025.4 hPa | 0 mm | - | 223 W/m² | - |
| 1777591106 | 21.67° C | 80% | 1025.4 hPa | 0 mm | - | 260 W/m² | - |
| 1777591035 | 21.67° C | 82% | 1025.4 hPa | 0 mm | - | 197 W/m² | - |
| 1777590965 | 21.67° C | 80% | 1025.4 hPa | 0 mm | - | 172 W/m² | - |
| 1777590904 | 21.67° C | 81% | 1025.4 hPa | 0 mm | - | 172 W/m² | - |
| 1777590846 | 21.67° C | 81% | 1025.4 hPa | 0 mm | - | 181 W/m² | - |
| 1777590776 | 21.67° C | 82% | 1025.4 hPa | 0 mm | - | 197 W/m² | - |
| 1777590717 | 21.67° C | 82% | 1025.2 hPa | 0 mm | - | 206 W/m² | - |
| 1777590657 | 21.67° C | 82% | 1025.4 hPa | 0 mm | - | 200 W/m² | - |
| 1777590588 | 21.67° C | 81% | 1025.3 hPa | 0 mm | - | 162 W/m² | - |
| 1777590519 | 21.67° C | 81% | 1025.3 hPa | 0 mm | - | 151 W/m² | - |
| 1777590448 | 21.67° C | 80% | 1025.4 hPa | 0 mm | - | 132 W/m² | - |
| 1777590381 | 21.67° C | 82% | 1025.3 hPa | 0 mm | - | 135 W/m² | - |
| 1777590308 | 21.67° C | 81% | 1025.3 hPa | 0 mm | - | 156 W/m² | - |
| 1777590239 | 21.11° C | 81% | 1025.3 hPa | 0 mm | - | 285 W/m² | - |
| 1777590167 | 21.11° C | 82% | 1025.2 hPa | 0 mm | - | 185 W/m² | - |
| 1777590097 | 21.11° C | 84% | 1025.2 hPa | 0 mm | - | 181 W/m² | - |
* Rain latest hour (hover to see other rain measurements)
** Current wind speed in m/s (hover to see current wind gust speed)